This is the latest recevied weather packets stored in our database for station/object KD5FHA. If no packets are shown the sender has not sent any weather packets the latest 10 day(s).
| Time | Temp. | Humidity | Pressure | Rain* | Wind** | Luminosity | Snow |
|---|---|---|---|---|---|---|---|
| 1778025355 | 28.89° C | 69% | 1005.1 hPa | 0 mm | - | 75 W/m² | - |
| 1778025051 | 28.89° C | 69% | 1005.4 hPa | 0 mm | - | 68 W/m² | - |
| 1778024748 | 28.89° C | 69% | 1005.3 hPa | 0 mm | - | 68 W/m² | - |
| 1778024445 | 29.44° C | 69% | 1005.2 hPa | 0 mm | - | 65 W/m² | - |
| 1778024143 | 29.44° C | 69% | 1005.2 hPa | 0 mm | - | 74 W/m² | - |
| 1778023840 | 29.44° C | 69% | 1005.3 hPa | 0 mm | - | 123 W/m² | - |
| 1778023538 | 29.44° C | 68% | 1005.2 hPa | 0 mm | - | 140 W/m² | - |
| 1778023235 | 30° C | 68% | 1005 hPa | 0 mm | - | 141 W/m² | - |
| 1778022932 | 30° C | 68% | 1005 hPa | 0 mm | - | 166 W/m² | - |
| 1778022631 | 30° C | 68% | 1005.1 hPa | 0 mm | - | 178 W/m² | - |
| 1778022327 | 30° C | 68% | 1004.9 hPa | 0 mm | - | 226 W/m² | - |
| 1778022024 | 30.56° C | 67% | 1005.1 hPa | 0 mm | - | 250 W/m² | - |
| 1778021721 | 30.56° C | 67% | 1005 hPa | 0 mm | - | 227 W/m² | - |
| 1778021417 | 30.56° C | 67% | 1004.9 hPa | 0 mm | - | 174 W/m² | - |
| 1778021114 | 31.11° C | 64% | 1004.7 hPa | 0 mm | - | 148 W/m² | - |
| 1778020811 | 31.11° C | 59% | 1004.7 hPa | 0 mm | - | 228 W/m² | - |
| 1778020508 | 31.67° C | 58% | 1004.7 hPa | 0 mm | - | 239 W/m² | - |
| 1778020204 | 31.11° C | 59% | 1004.7 hPa | 0 mm | - | 238 W/m² | - |
| 1778019901 | 31.67° C | 58% | 1004.6 hPa | 0 mm | - | 425 W/m² | - |
| 1778019596 | 31.67° C | 59% | 1004.7 hPa | 0 mm | - | 494 W/m² | - |
| 1778019293 | 31.67° C | 60% | 1004.5 hPa | 0 mm | - | 294 W/m² | - |
| 1778018991 | 31.67° C | 59% | 1004.6 hPa | 0 mm | - | 268 W/m² | - |
| 1778018688 | 31.67° C | 59% | 1004.5 hPa | 0 mm | - | 278 W/m² | - |
| 1778018385 | 31.67° C | 58% | 1004.4 hPa | 0 mm | - | 426 W/m² | - |
| 1778018083 | 31.11° C | 59% | 1004.4 hPa | 0 mm | - | 417 W/m² | - |
* Rain latest hour (hover to see other rain measurements)
** Current wind speed in m/s (hover to see current wind gust speed)